sat.trackr.live / text

‹ back to catalog

2025-013B

NORAD 62730 · 2025-013B

PAYLOAD ACTIVE UNKNOWN

§ Identity

Operator
Country
PRC
Launch date
2025-01-20
Launch site
JSC
Launch vehicle
Mass (kg)
RCS (m²)

External: N2YO · Heavens-Above · Gunter

§ Orbital elements

Epoch: 2026-05-25T04:01:51.617856Z

Period
95.29 min
Inclination
97.6550°
Eccentricity
0.0014902
Mean motion
15.11143366 rev/d
Perigee alt
522.4 km
Apogee alt
543.0 km
Semi-major
6,910.8 km
B*
1.8805e-4
RAAN
314.5282°
Arg perigee
89.4811°
Mean anomaly
270.8126°
Rev number
7,385

§ Raw data

2025-013B1 62730U 25013B   26145.16795854  .00003094  00000+0  18805-3 0  99922 62730  97.6550 314.5282 0014902  89.4811 270.8126 15.11143366 73854

JSON: /api/v1/satellites/62730 · /tle

For live sub-satellite position, see the globe view (requires WebGL).

§ Visibility from observer

Set your observer location to see the next 7 days of passes ≥ 10°. The values pass through the URL so the page stays shareable.

No JS? Fill the form by hand. The geolocation button needs JavaScript.